Location: ????
(55.5675°N, 37.6272°E)
Time: 10:33:13
(UTC+00:00)

Cosmos 1674 Rocket - Pass Details

Date: 14 April 2026
Orbit: 596 x 621 km, 82.5° (Epoch: 18 May)

Event Time Altitude Azimuth Distance (km) Brightness Sun altitude
Rises 18:40:13 0° 347° (NNW) 2,859 8.0 -15.9°
Reaches altitude 10° 18:42:26 10° 345° (NNW) 1,953 7.1 -16.1°
Maximum altitude 18:46:45 76° 261° (W) 627 3.6 -16.5°
Enters shadow 18:49:15 24° 179° (S) 1,246 4.7 -16.8°
